Location: Boiro
(42.6475°N, 8.8834°W)
Time: 18:27:31
(UTC+01:00)

Courier 1B - All Passes

Search period start: 06 December 2021 00:00
Search period end: 16 December 2021 00:00
Orbit: 962 x 1209 km, 28.3° (Epoch: 05 December)

Date Brightness Start Highest point End Pass type
(mag) Time Alt. Az. Time Alt. Az. Time Alt. Az.
06 Dec - 16:33:42 10° SSW 16:38:33 18° SSE 16:43:17 10° ESE daylight
06 Dec - 18:25:47 10° SW 18:31:47 26° S 18:37:31 10° ESE visible
06 Dec - 20:19:31 10° WSW 20:24:58 23° SSW 20:30:13 10° SE visible
06 Dec - 22:15:48 10° SW 22:17:53 11° SSW 22:19:56 10° S visible
07 Dec - 15:40:49 10° S 15:44:55 15° SSE 15:48:57 10° SE daylight
07 Dec - 17:32:08 10° SW 17:38:06 25° S 17:43:52 10° ESE daylight
07 Dec - 19:25:31 10° WSW 19:31:22 25° S 19:36:58 10° SE visible
07 Dec - 21:20:35 10° SW 21:24:23 15° SSW 21:28:05 10° S visible
08 Dec - 14:48:35 10° S 14:51:18 12° SSE 14:54:00 10° SE daylight
08 Dec - 16:38:37 10° SW 16:44:25 23° SSE 16:50:05 10° ESE daylight
08 Dec - 18:31:36 10° WSW 18:37:43 26° S 18:43:35 10° SE visible
08 Dec - 20:26:04 10° WSW 20:30:51 18° SSW 20:35:28 10° SSE visible
09 Dec - 15:45:16 10° SSW 15:50:44 21° SSE 15:56:08 10° ESE daylight
09 Dec - 17:37:47 10° SW 17:44:02 27° S 17:50:05 10° SE daylight
09 Dec - 19:31:48 10° WSW 19:37:16 22° SSW 19:42:31 10° SSE visible
10 Dec - 14:52:10 10° SSW 14:57:05 18° SSE 15:01:57 10° ESE daylight
10 Dec - 16:44:04 10° SW 16:50:19 27° S 16:56:26 10° ESE daylight
10 Dec - 18:37:42 10° WSW 18:43:38 24° S 18:49:21 10° SE visible
10 Dec - 20:33:24 10° SW 20:36:39 13° SSW 20:39:49 10° S visible
11 Dec - 13:59:27 10° S 14:03:26 15° SSE 14:07:25 10° SE daylight
11 Dec - 15:50:29 10° SW 15:56:37 25° S 16:02:39 10° ESE daylight
11 Dec - 17:43:44 10° WSW 17:49:57 26° S 17:55:59 10° SE daylight
11 Dec - 19:38:33 10° WSW 19:43:05 17° SSW 19:47:30 10° SSE visible
12 Dec - 13:07:36 10° S 13:09:50 11° SSE 13:12:04 10° SE daylight
12 Dec - 14:57:04 10° SW 15:02:54 23° SSE 15:08:44 10° ESE daylight
12 Dec - 16:49:53 10° WSW 16:56:14 27° S 17:02:28 10° SE daylight
12 Dec - 18:44:10 10° WSW 18:49:29 20° SSW 18:54:40 10° SSE visible
13 Dec - 14:03:51 10° SSW 14:09:13 20° SSE 14:14:37 10° ESE daylight
13 Dec - 15:56:08 10° SW 16:02:31 28° S 16:08:50 10° ESE daylight
13 Dec - 17:49:58 10° WSW 17:55:50 23° SSW 18:01:33 10° SE daylight
13 Dec - 19:46:39 10° SW 19:48:50 11° SSW 19:51:01 10° S visible
14 Dec - 13:10:55 10° SSW 13:15:34 17° SSE 13:20:17 10° ESE daylight
14 Dec - 15:02:31 10° SW 15:08:47 27° S 15:15:03 10° ESE daylight
14 Dec - 16:55:58 10° WSW 17:02:08 26° S 17:08:13 10° SE daylight
14 Dec - 18:51:15 10° SW 18:55:16 15° SSW 18:59:14 10° S visible
15 Dec - 12:18:29 10° S 12:21:58 14° SSE 12:25:29 10° SE daylight
15 Dec - 14:09:03 10° SW 14:15:04 25° S 14:21:09 10° ESE daylight
15 Dec - 16:02:06 10° WSW 16:08:25 27° S 16:14:43 10° SE daylight
15 Dec - 17:56:39 10° WSW 18:01:40 18° SSW 18:06:35 10° SSE daylight
